This is the latest recevied weather packets stored in our database for station/object WA4IKQ. If no packets are shown the sender has not sent any weather packets the latest 10 day(s).
| Time | Temp. | Humidity | Pressure | Rain* | Wind** | Luminosity | Snow |
|---|---|---|---|---|---|---|---|
| 1778246203 | 26.67° C | 80% | 1015.5 hPa | 0 mm | 0.89 m/s, 304° | - | - |
| 1778246136 | 26.67° C | 81% | 1015.5 hPa | 0 mm | 0.89 m/s, 274° | - | - |
| 1778245904 | 26.67° C | 81% | 1015.5 hPa | 0 mm | 0.89 m/s, 274° | - | - |
| 1778245665 | 26.67° C | 82% | 1015.5 hPa | 0 mm | 1.34 m/s, 284° | - | - |
| 1778245601 | 26.67° C | 82% | 1015.5 hPa | 0 mm | 1.34 m/s, 284° | - | - |
| 1778245552 | 26.11° C | 83% | 1015.5 hPa | 0 mm | 1.34 m/s, 183° | - | - |
| 1778245301 | 26.11° C | 83% | 1015.5 hPa | 0 mm | 1.34 m/s, 183° | - | - |
| 1778245193 | 26.11° C | 84% | 1015.5 hPa | 0 mm | 0.45 m/s, 173° | - | - |
| 1778245002 | 26.11° C | 84% | 1015.5 hPa | 0 mm | 0.45 m/s, 173° | - | - |
| 1778244891 | 26.11° C | 85% | 1015.5 hPa | 0 mm | 0.89 m/s, 298° | - | - |
| 1778244702 | 26.11° C | 85% | 1015.5 hPa | 0 mm | 0.89 m/s, 298° | - | - |
| 1778244602 | 25.56° C | 85% | 1015.5 hPa | 0 mm | 3.13 m/s, 264° | - | - |
| 1778244402 | 25.56° C | 85% | 1015.5 hPa | 0 mm | 3.13 m/s, 264° | - | - |
| 1778244267 | 25.56° C | 86% | 1015.4 hPa | 0 mm | 1.79 m/s, 287° | - | - |
| 1778244102 | 25.56° C | 86% | 1015.4 hPa | 0 mm | 1.79 m/s, 287° | - | - |
| 1778244002 | 25.56° C | 87% | 1015.3 hPa | 0 mm | 0.45 m/s, 242° | - | - |
| 1778243802 | 25.56° C | 87% | 1015.3 hPa | 0 mm | 0.45 m/s, 242° | - | - |
| 1778243785 | 25° C | 88% | 1015.2 hPa | 0 mm | 1.79 m/s, 314° | - | - |
| 1778243500 | 25° C | 88% | 1015.2 hPa | 0 mm | 1.79 m/s, 314° | - | - |
| 1778243402 | 25° C | 89% | 1015.2 hPa | 0 mm | 1.34 m/s, 212° | - | - |
| 1778243200 | 25° C | 89% | 1015.2 hPa | 0 mm | 1.34 m/s, 212° | - | - |
| 1778243174 | 25° C | 89% | 1015.1 hPa | 0 mm | 0.89 m/s, 235° | - | - |
| 1778242900 | 25° C | 89% | 1015.1 hPa | 0 mm | 0.89 m/s, 235° | - | - |
| 1778242551 | 24.44° C | 90% | 1015 hPa | 0 mm | 0.45 m/s, 170° | - | - |
| 1778242301 | 24.44° C | 90% | 1015 hPa | 0 mm | 0.45 m/s, 170° | - | - |
* Rain latest hour (hover to see other rain measurements)
** Current wind speed in m/s (hover to see current wind gust speed)